Joplin, MO

4:37 AM CST on November 13, 2019 (GMT -0600)
Joplin Regional

Weather History for KJLN - September, 2019

Change the Weather History Date:

Monday, September 23, 2019

  Actual Average Record
Temperature  
Mean Temperature 74 °F 68 °F  
Max Temperature 84 °F 79 °F 90 °F (2017)
Min Temperature 64 °F 56 °F 34 °F (1995)
Degree Days  
Heating Degree Days 0 2  
Month to date heating degree days 0 17  
Since 1 July heating degree days 0 18  
Cooling Degree Days 9 5  
Month to date cooling degree days 329 186  
Year to date cooling degree days 1580 1613  
Growing Degree Days 24 (Base 50)    
Moisture  
Dew Point 62 °F    
Average Humidity 76    
Maximum Humidity 100    
Minimum Humidity 34    
Precipitation  
Precipitation 0.00 in 0.15 in 1.68 in (1988)
Month to date precipitation 2.13 3.82  
Year to date precipitation 51.02 34.79  
Sea Level Pressure  
Sea Level Pressure 30.05 in    
Wind  
Wind Speed 5 mph ()    
Max Wind Speed 14 mph    
Max Gust Speed 19 mph    
Visibility 9.8 miles    
Events      
T = Trace of Precipitation, MM = Missing Value Source: Averaged Metar Reports

Daily Weather History Graph

Daily Weather History Graph

Search for Another Location

Airport or City:

Astronomy

Sep. 23, 2019 Rise Set
Actual Time 7:06 AM CDT 7:13 PM CDT
Civil Twilight 6:40 AM CDT 7:39 PM CDT
Nautical Twilight 6:10 AM CDT 8:09 PM CDT
Astronomical Twilight 5:39 AM CDT 8:40 PM CDT
Moon 12:59 AM CDT (9/23) 3:59 PM CDT (9/23)
Length of Visible Light 12h 59m
Length of Day
12h 07m
Waning Crescent, 33% of the Moon is Illuminated
Sep 23
Waning Crescent
Sep 28
New
Oct 5
First Quarter
Oct 13
Full
Oct 21
Last Quarter

Hourly Weather History & Observations

Time (CDT) Temp. Heat Index Dew Point Humidity Pressure Visibility Wind Dir Wind Speed Gust Speed Precip Events Conditions
12:24 AM 70.0 °F - 68.0 °F 93% 30.04 in 10.0 mi NNW 8.1 mph - N/A   Overcast
12:34 AM 69.1 °F - 66.9 °F 93% 30.04 in 10.0 mi North 5.8 mph - N/A   Overcast
12:45 AM 69.1 °F - 66.9 °F 93% 30.04 in 10.0 mi North 9.2 mph - N/A   Overcast
12:53 AM 68.0 °F - 66.0 °F 93% 30.02 in 10.0 mi North 8.1 mph - N/A   Overcast
1:13 AM 68.0 °F - 66.0 °F 93% 30.04 in 10.0 mi North 5.8 mph - N/A   Mostly Cloudy
1:53 AM 66.9 °F - 64.9 °F 93% 30.03 in 10.0 mi North 4.6 mph - N/A   Mostly Cloudy
2:40 AM 66.0 °F - 64.9 °F 96% 30.05 in 9.0 mi North 4.6 mph - N/A   Mostly Cloudy
2:53 AM 66.0 °F - 64.9 °F 96% 30.03 in 9.0 mi Calm Calm - N/A   Mostly Cloudy
3:22 AM 66.9 °F - 66.0 °F 97% 30.06 in 10.0 mi Calm Calm - N/A   Mostly Cloudy
3:32 AM 66.9 °F - 66.0 °F 97% 30.06 in 10.0 mi North 4.6 mph - N/A   Overcast
3:39 AM 66.9 °F - 64.9 °F 93% 30.06 in 10.0 mi North 4.6 mph - N/A   Overcast
4:53 AM 66.0 °F - 64.0 °F 93% 30.04 in 10.0 mi North 5.8 mph - N/A   Overcast
5:51 AM 64.4 °F - 64.4 °F 100% 30.08 in 9.0 mi NE 4.6 mph - N/A   Overcast
5:53 AM 64.9 °F - 64.0 °F 97% 30.06 in 9.0 mi Calm Calm - N/A   Overcast
6:53 AM 64.9 °F - 63.0 °F 93% 30.06 in 9.0 mi Variable 4.6 mph - N/A   Overcast
7:53 AM 64.9 °F - 63.0 °F 93% 30.07 in 10.0 mi Calm Calm - N/A   Overcast
8:53 AM 66.0 °F - 64.0 °F 93% 30.09 in 10.0 mi Variable 3.5 mph - N/A   Overcast
9:43 AM 70.0 °F - 64.0 °F 81% 30.12 in 10.0 mi East 8.1 mph - N/A   Scattered Clouds
9:53 AM 70.0 °F - 64.0 °F 81% 30.10 in 10.0 mi East 6.9 mph - N/A   Partly Cloudy
10:53 AM 73.9 °F - 64.0 °F 71% 30.11 in 10.0 mi East 6.9 mph - N/A   Clear
11:53 AM 77.0 °F - 63.0 °F 62% 30.10 in 10.0 mi Variable 3.5 mph - N/A   Clear
12:53 PM 80.1 °F 81.1 °F 61.0 °F 52% 30.09 in 10.0 mi ESE 10.4 mph - N/A   Clear
1:53 PM 81.0 °F 81.6 °F 60.1 °F 49% 30.06 in 10.0 mi ESE 9.2 mph - N/A   Clear
2:53 PM 84.0 °F 82.6 °F 54.0 °F 35% 30.05 in 10.0 mi East 6.9 mph - N/A   Clear
3:53 PM 84.0 °F 82.5 °F 53.1 °F 34% 30.04 in 10.0 mi ESE 10.4 mph - N/A   Clear
4:53 PM 82.9 °F 81.9 °F 54.0 °F 37% 30.02 in 10.0 mi East 12.7 mph - N/A   Clear
5:53 PM 82.0 °F 81.4 °F 55.0 °F 39% 30.02 in 10.0 mi ENE 5.8 mph - N/A   Clear
6:53 PM 77.0 °F - 57.0 °F 50% 30.02 in 10.0 mi ENE 3.5 mph - N/A   Clear
7:53 PM 71.1 °F - 55.9 °F 59% 30.02 in 10.0 mi East 5.8 mph - N/A   Clear
8:53 PM 69.1 °F - 55.9 °F 63% 30.03 in 10.0 mi ESE 6.9 mph - N/A   Clear
9:53 PM 68.0 °F - 55.9 °F 65% 30.02 in 10.0 mi ESE 6.9 mph - N/A   Clear
10:53 PM 66.9 °F - 54.0 °F 63% 30.01 in 10.0 mi ESE 9.2 mph - N/A   Clear
11:53 PM 68.0 °F - 53.1 °F 59% 30.01 in 10.0 mi SE 5.8 mph - N/A   Clear